Weather History for Cincinnati, OH

Change the Weather History Date:

Saturday, December 14, 2013

  Actual Average Record
Temperature  
Mean Temperature 36 °F -  
Max Temperature 39 °F 44 °F 68 °F (1975)
Min Temperature 32 °F 29 °F 6 °F (1958)
Degree Days  
Heating Degree Days 30    
Moisture  
Dew Point 34 °F    
Average Humidity 95    
Maximum Humidity 100    
Minimum Humidity 85    
Precipitation  
Precipitation 0.45 in - - ()
Sea Level Pressure  
Sea Level Pressure 29.89 in    
Wind  
Wind Speed 4 mph (NNW)    
Max Wind Speed 14 mph    
Max Gust Speed 21 mph    
Visibility 6 miles    
Events Rain , Snow    
Averages and records for this station are not official NWS values.
T = Trace of Precipitation, MM = Missing Value Source: NWS Daily Summary

Daily Weather History Graph

Daily Weather History Graph

Search for Another Location

Airport:

Trip Planner

Search our weather history database for the weather conditions in past years. The results will help you decide how hot, cold, wet, or windy it might be!

Date:

Astronomy

Dec. 14, 2013 Rise Set
Actual Time 7:49 AM EST 5:15 PM EST
Civil Twilight 7:19 AM EST 5:45 PM EST
Nautical Twilight 6:45 AM EST 6:19 PM EST
Astronomical Twilight 6:13 AM EST 6:51 PM EST
Moon 3:36 PM EST (12/14) 5:09 AM EST (12/14)
Length of Visible Light 10h 26m
Length of Day
9h 26m
Waxing Gibbous, 93% of the Moon is Illuminated
Dec 14
Waxing Gibbous
Dec 17
Full
Dec 25
Last Quarter
Jan 1
New
Jan 7
First Quarter

Hourly Weather History & Observations

Time (EST) Temp. Windchill Dew Point Humidity Pressure Visibility Wind Dir Wind Speed Gust Speed Precip Events Conditions
12:53 AM 33.1 °F 28.7 °F 30.0 °F 89% 30.16 in 10.0 mi NE 4.6 mph - 0.00 in   Overcast
1:53 AM 33.1 °F 30.0 °F 30.0 °F 89% 30.15 in 10.0 mi North 3.5 mph - N/A   Overcast
2:53 AM 34.0 °F 29.8 °F 30.9 °F 89% 30.13 in 10.0 mi ENE 4.6 mph - 0.00 in   Overcast
3:53 AM 33.1 °F 27.7 °F 30.9 °F 92% 30.11 in 10.0 mi NNE 5.8 mph - 0.01 in Rain Light Rain
4:53 AM 33.1 °F - 30.9 °F 92% 30.10 in 9.0 mi Calm Calm - 0.00 in   Overcast
5:53 AM 33.1 °F - 32.0 °F 96% 30.08 in 5.0 mi Calm Calm - 0.01 in Rain Light Rain
6:04 AM 33.8 °F - 30.2 °F 87% 30.06 in 5.0 mi Calm Calm - 0.00 in Snow Light Snow
6:34 AM 32.0 °F 28.7 °F 30.2 °F 93% 30.04 in 6.0 mi NNE 3.5 mph - 0.02 in   Overcast
6:53 AM 33.1 °F 28.7 °F 30.9 °F 92% 30.05 in 7.0 mi NNE 4.6 mph - 0.03 in Rain Light Rain
7:53 AM 32.0 °F - 32.0 °F 100% 30.04 in 3.0 mi Calm Calm - 0.01 in   Overcast
8:53 AM 35.1 °F 31.0 °F 34.0 °F 96% 30.00 in 4.0 mi ESE 4.6 mph - 0.03 in Rain Light Rain
9:53 AM 37.0 °F 34.5 °F 34.0 °F 89% 29.96 in 7.0 mi East 3.5 mph - 0.05 in Rain Light Rain
10:53 AM 36.0 °F - 35.1 °F 97% 29.90 in 8.0 mi Calm Calm - 0.05 in Rain Light Rain
11:53 AM 36.0 °F 32.1 °F 35.1 °F 97% 29.86 in 4.0 mi NNE 4.6 mph - 0.10 in Rain Light Rain
12:12 PM 35.6 °F 29.9 °F 35.6 °F 100% 29.82 in 2.5 mi NNE 6.9 mph - 0.03 in Rain Rain
12:30 PM 35.6 °F 31.7 °F 35.6 °F 100% 29.81 in 3.0 mi North 4.6 mph - 0.06 in Rain Rain
12:49 PM 35.6 °F - 35.6 °F 100% 29.80 in 2.5 mi Calm Calm - 0.10 in Rain Rain
12:53 PM 36.0 °F - 36.0 °F 100% 29.81 in 2.5 mi Calm Calm - 0.10 in Rain Light Rain
1:09 PM 35.6 °F 32.8 °F 35.6 °F 100% 29.78 in 2.5 mi ENE 3.5 mph - 0.02 in Rain Light Rain
1:14 PM 35.6 °F 32.8 °F 35.6 °F 100% 29.78 in 1.0 mi ENE 3.5 mph - 0.02 in Rain Light Rain
1:53 PM 36.0 °F 32.1 °F 36.0 °F 100% 29.76 in 1.0 mi NE 4.6 mph - 0.02 in   Overcast
2:00 PM 37.4 °F 34.9 °F 35.6 °F 93% 29.75 in 1.0 mi NNE 3.5 mph - N/A   Overcast
2:53 PM 37.0 °F - 37.0 °F 100% 29.74 in 1.0 mi Calm Calm - 0.01 in   Overcast
3:53 PM 37.0 °F - 37.0 °F 100% 29.74 in 1.0 mi Calm Calm - 0.02 in Rain Light Rain
4:48 PM 37.4 °F 34.9 °F 37.4 °F 100% 29.74 in 2.0 mi SSW 3.5 mph - 0.01 in   Overcast
4:53 PM 37.0 °F 34.5 °F 37.0 °F 100% 29.75 in 2.0 mi SW 3.5 mph - 0.01 in Rain Light Rain
4:57 PM 37.4 °F 34.9 °F 37.4 °F 100% 29.74 in 2.0 mi SW 3.5 mph - 0.00 in Rain Light Rain
5:53 PM 39.0 °F 31.0 °F 37.0 °F 93% 29.76 in 2.0 mi WSW 13.8 mph - 0.00 in   Overcast
6:24 PM 37.4 °F 29.8 °F 37.4 °F 100% 29.77 in 10.0 mi WSW 11.5 mph - N/A   Overcast
6:53 PM 39.0 °F 33.4 °F 36.0 °F 89% 29.78 in 10.0 mi WSW 8.1 mph - N/A   Overcast
7:53 PM 37.9 °F 30.9 °F 35.1 °F 89% 29.81 in 10.0 mi West 10.4 mph 20.7 mph N/A   Overcast
8:53 PM 37.0 °F 28.5 °F 34.0 °F 89% 29.82 in 10.0 mi West 13.8 mph 19.6 mph N/A   Overcast
9:53 PM 36.0 °F 29.0 °F 33.1 °F 89% 29.84 in 10.0 mi West 9.2 mph 20.7 mph N/A   Overcast
10:39 PM 35.6 °F 26.6 °F 33.8 °F 93% 29.86 in 8.0 mi West 13.8 mph - N/A   Overcast
10:53 PM 35.1 °F 28.6 °F 32.0 °F 89% 29.87 in 10.0 mi West 8.1 mph 18.4 mph N/A   Overcast
11:53 PM 34.0 °F 25.0 °F 30.0 °F 85% 29.91 in 8.0 mi West 12.7 mph 20.7 mph N/A   Overcast